Regional Weather Roundup
Issued by NWS Kansas City/Pleasant Hill, MO

Home | Current Version | Previous Version | Graphics & Text | Print | Product List | Glossary Off
Versions: 1 2 3 4 5 6 7 8 9 10 11 12 13 14 15 16 17 18 19 20 21 22 23 24 25 26 27 28 29 30 31 32 33 34 35 36 37 38 39 40 41 42 43 44 45 46 47 48 49 50

000
ASUS43 KEAX 220611
RWREAX

WEATHER ROUNDUP FOR EASTERN KANSAS AND NORTHWEST MISSOURI
NATIONAL WEATHER SERVICE KANSAS CITY/PLEASANT HILL MO
100 AM CDT FRI AUG 22 2014

KSZ040-057-103>105-MOZ028-029-037-043-220700-
...KANSAS CITY METROPOLITAN AREA...

CITY           SKY/WX    TMP DP  RH WIND       PRES   REMARKS
K.C. INTL      FAIR      82  72  71 S17       29.92S
6HR MIN TEMP:  82; 6HR MAX TEMP:  91;

K.C. DOWNTOWN  FAIR      85  71  63 S15       29.91S HX  90
6HR MIN TEMP:  84; 6HR MAX TEMP:  94;

LEES SUMMIT    FAIR      82  71  69 SW12      29.95R
6HR MIN TEMP:  82; 6HR MAX TEMP:  91;

OLATHE - IXD   FAIR      81  71  71 S12       29.94S
6HR MIN TEMP:  81; 6HR MAX TEMP:  92;

OLATHE - OJC   FAIR      80  71  74 S9        29.94R
6HR MIN TEMP:  80; 6HR MAX TEMP:  90;

LAWRENCE       FAIR      85  72  65 S10G18    29.91S HX  91

$$

MOZ001>008-011>017-020>025-030>033-038>040-044>046-053-054-220700-
...NORTHERN AND CENTRAL MISSOURI...

CITY           SKY/WX    TMP DP  RH WIND       PRES   REMARKS
ST. JOSEPH     FAIR      81  74  79 S7        29.89S
6HR MIN TEMP:  81; 6HR MAX TEMP:  89;

MOSBY          FAIR      82  70  65 S7        29.91F
WARRENSBURG    FAIR      77  70  78 S7        29.95R
WHITEMAN AFB   FAIR      76  67  73 S9        29.96R
6HR MIN TEMP:  76; 6HR MAX TEMP:  90;

CLINTON        FAIR      81  72  74 S7        29.97R
SEDALIA        FAIR      81  69  67 SW9       29.98R
6HR MIN TEMP:  81; 6HR MAX TEMP:  91;

WARSAW         NOT AVBL
MARSHALL       FAIR      81  73  78 S7        29.96R
CHILLICOTHE      N/A     82  72  71 S6        29.92S
6HR MIN TEMP:  82; 6HR MAX TEMP:  89;

MOBERLY        FAIR      81  70  69 SW9       29.95S
KIRKSVILLE     FAIR      82  73  74 SW10      29.92F
6HR MIN TEMP:  77; 6HR MAX TEMP:  86;


$$

MOZ041-047>049-056>058-063>065-088>090-097-220700-
...EASTERN AND SOUTHERN MISSOURI...

CITY           SKY/WX    TMP DP  RH WIND       PRES   REMARKS
ST. LOUIS INTL FAIR      85  74  69 S10       29.97S HX  92
6HR MIN TEMP:  85; 6HR MAX TEMP:  93;

SPIRIT OF STL  FAIR      81  71  71 S8        29.95S
COLUMBIA       FAIR      77  71  82 S7        29.97R
JEFFERSON CITY FAIR      81  69  67 S6        29.96R
MEXICO         FAIR      79  79 100 S8        29.95S
ROLLA          FAIR      78  66  66 SW8       30.00S
LEBANON        FAIR      77  68  73 S7        30.04S
OSAGE BEACH    FAIR      79  66  65 S5        29.99S
SPRINGFIELD    FAIR      78  69  73 S10       30.02S
BRANSON        FAIR      77  72  83 S5        30.05S
JOPLIN         FAIR      80  71  74 S10       29.99S
WEST PLAINS    FAIR      76  66  71 SW3       30.07S

$$

IAZ060-094-KSZ022-034>040-054-083-096-NEZ052-066-093-220700-
...KANSAS...SOUTHEAST NEBRASKA AND IOWA...

CITY           SKY/WX    TMP DP  RH WIND       PRES   REMARKS
TOPEKA         FAIR      85  73  67 S12G20    29.89F HX  91
6HR MIN TEMP:  85; 6HR MAX TEMP:  97;

MANHATTAN      FAIR      79  68  69 SW5       29.91F
EMPORIA        FAIR      81  72  74 S16       29.92F
CHANUTE        FAIR      81  71  71 S12       29.95R
WICHITA        FAIR      83  70  64 S17       29.93R
OMAHA          TSTM      78  74  87 E5        29.86F
LINCOLN        FAIR      79  74  84 NW6       29.87F
FALLS CITY     FAIR      82  71  69 SW7       29.86S
LAMONI         FAIR      81  73  76 S13       29.89S
DES MOINES     FAIR      80  76  87 SE7       29.85F

$$




USA.gov is the U.S. government's official web portal to all federal, state and local government web resources and services.